User: anonymous   Login
Location: Caltech
(34.1382°N, 118.1253°W)
Time: 19:18:11
(UTC-08:00)
Language:

Cosmos 2237 Rocket - Orbit

View from above orbital plane
View from above orbital plane
View from above satellite
View from above satellite

Ground track
Ground track

The orbit data is extracted from the following two-line orbital elements,

1 22566U 93016B   18051.84069865  .00000130  00000-0  91740-4 0  9990
2 22566  71.0044 264.9811 0008608 122.5842 237.6112 14.14954541286440
Epoch (UTC): 20 February 2018 20:10:36
Eccentricity: 0.0008608
inclination: 71.0044°
perigee height: 836 km
apogee height: 848 km
right ascension of ascending node: 264.9811°
argument of perigee: 122.5842°
revolutions per day: 14.14954541
mean anomaly at epoch: 237.6112°
orbit number at epoch: 28644

The dashed part of the orbit path shows where the satellite is in the earth's shadow,  

DLR